Powrót do katalogu

SL-16 DEB

AktywnyLEO
NORAD 19126·DEBRIS·🇷🇺 Russia

Wystrzelony May 15, 1988 z Baikonur Cosmodrome

Loading…

Następne Przeloty (najbliższe 24 godziny)

TLE

ŚwieżeSource: Space-Track

Epoka: Sep 14, 2026, 09:13 UTC

1 19126U 88039D   26257.38453855  .00000032  00000-0  66426-4 0  9993
2 19126  71.0291 249.8855 0183100 190.5037 241.1244 13.77963511926132

Śledź SL-16 DEB w czasie rzeczywistym z AllMySat

Download on the App Store